Flag for Japan Weather past 2 weeks in Niigata, Japan

Now
80 °F

Warm.


Feels Like: 86 °F
Forecast: 73 / 88 °F
Wind: 6 mph from South

Location: Niigata

Current Time: Aug 22, 2014 at 3:32:51 AM

Latest Report: Aug 22, 2014 at 2:00 AM


Visibility: N/A

Pressure: 29.87 "Hg

Humidity: 88%

Dew point: 76 °F

Location of NiigataLocation

Historic Weather in Niigata — Graph

°F

Niigata temperature yesterday

Maximum temperature yesterday: 85 °F (at 12:00 PM)
Minimum temperature yesterday: 75 °F (at 6:00 AM)
Average temperature yesterday: 81 °F

Past Weeks' High & Low Weather Summary

 TemperatureHumidityPressure
High90 °F (Aug 19, 1:00 PM)97% (Aug 18, 5:00 AM)30.00 "Hg (Aug 18, 5:00 AM)
Low70 °F (Aug 13, 4:00 AM)55% (Aug 19, 2:00 PM)29.15 "Hg (Aug 10, 6:00 PM)
Average79 °F81%29.79 "Hg
* Reported Aug 7 2:00 AM — Aug 22 2:00 AM, Niigata, Weather by CustomWeather, © 2014

Note: Actual official high and low records may vary slightly from our data, if they occured in-between our weather recording intervals... More about our weather records

Advertising

Niigata weather history for previous 24 hours

 ConditionsComfort  
Time TempWeatherWind HumidityBarometerVisibility
2:00 AM
Aug 22
80 °FWarm.6 mph88%29.87 "HgN/A
1:00 AM80 °FWarm.5 mph89%29.87 "HgN/A
12:00 AM80 °FWarm.3 mph87%29.88 "HgN/A
11:00 PM
Aug 21
81 °FWarm.3 mph86%29.88 "HgN/A
10:00 PM81 °FWarm.1 mph85%29.89 "HgN/A
9:00 PM81 °FOvercast.3 mph83%29.90 "Hg16 mi
8:00 PM80 °FWarm.2 mph85%29.90 "HgN/A
7:00 PM81 °FWarm.2 mph83%29.88 "HgN/A
6:00 PM82 °FOvercast.3 mph81%29.88 "Hg19 mi
5:00 PM84 °FWarm.3 mph73%29.87 "HgN/A
4:00 PM83 °FWarm.3 mph76%29.88 "HgN/A
3:00 PM85 °FOvercast.1 mph68%29.88 "Hg19 mi
2:00 PM84 °FWarm.3 mph70%29.88 "HgN/A
1:00 PM84 °FWarm.2 mph74%29.90 "HgN/A
12:00 PM85 °FOvercast.3 mph71%29.90 "Hg19 mi
11:00 AM83 °FWarm.5 mph76%29.92 "HgN/A
10:00 AM82 °FWarm.5 mph76%29.93 "HgN/A
9:00 AM80 °FOvercast.6 mph86%29.94 "Hg12 mi
8:00 AM79 °FWarm.6 mph89%29.94 "HgN/A
7:00 AM77 °FWarm.6 mph89%29.96 "HgN/A
6:00 AM75 °FOvercast.3 mph93%29.95 "Hg9 mi
5:00 AM76 °FMild.3 mph94%29.94 "HgN/A
4:00 AM78 °FWarm.5 mph88%29.93 "HgN/A
3:00 AM79 °FOvercast.3 mph84%29.92 "Hg12 mi
Weather by CustomWeather, © 2014

See weather overviewHow to use our weather pages